EWG68N LOWW-EDDH

Flight info

Callsign EWG68N
Flight time N/A
Altitude 34000
Route LANUX2C LANUX DCT VLM DCT HDO DCT OSKAN M748 BOLBO DCT ESIKA DCT SOGMA M748 RARUP RARUP3P
Aircraft A320/M-SDE3FGHIRWY/LB1

Departure

Time N/A
Airport Vienna International Airport (LOWW)

Arrival

Time 2026-04-23 17:19
Airport Hamburg Helmut Schmidt Airport (EDDH)
Time Latitude Longitude Altitude Speed Heading
2026-04-23 17:11 53.60899 10.37087 8723 ft 256 kts 322°
2026-04-23 17:11 53.62273 10.35177 8345 ft 256 kts 322°
2026-04-23 17:11 53.63614 10.33294 8260 ft 243 kts 322°
2026-04-23 17:12 53.64954 10.31585 8249 ft 252 kts 333°
2026-04-23 17:12 53.66688 10.30783 7643 ft 266 kts 360°
2026-04-23 17:12 53.68501 10.31505 7032 ft 275 kts 27°
2026-04-23 17:12 53.69972 10.33631 6393 ft 285 kts 49°
2026-04-23 17:13 53.71329 10.36076 5735 ft 283 kts 33°
2026-04-23 17:13 53.73071 10.37312 5227 ft 267 kts
2026-04-23 17:13 53.74866 10.37017 4711 ft 257 kts 338°
2026-04-23 17:13 53.76290 10.35320 4197 ft 250 kts 309°
2026-04-23 17:14 53.77023 10.32710 3692 ft 246 kts 284°
2026-04-23 17:14 53.77141 10.29848 3204 ft 244 kts 266°
2026-04-23 17:14 53.76697 10.27162 2991 ft 230 kts 247°
2026-04-23 17:14 53.75864 10.24956 3007 ft 218 kts 233°
2026-04-23 17:15 53.74913 10.23022 3001 ft 212 kts 233°
2026-04-23 17:15 53.73978 10.21105 3000 ft 208 kts 234°
2026-04-23 17:15 53.73089 10.19297 3032 ft 190 kts 234°
2026-04-23 17:15 53.72241 10.17627 2854 ft 188 kts 233°
2026-04-23 17:16 53.71398 10.15939 2542 ft 188 kts 235°
2026-04-23 17:16 53.70590 10.14245 2210 ft 188 kts 236°
2026-04-23 17:16 53.69772 10.12490 1821 ft 191 kts 235°
2026-04-23 17:16 53.68927 10.10826 1620 ft 181 kts 233°
2026-04-23 17:17 53.68112 10.09248 1414 ft 175 kts 235°
2026-04-23 17:17 53.67373 10.07726 1262 ft 163 kts 236°
2026-04-23 17:17 53.66894 10.06726 1127 ft 159 kts 236°
2026-04-23 17:17 53.65980 10.04843 838 ft 154 kts 235°
2026-04-23 17:18 53.64652 10.02133 424 ft 148 kts 234°
2026-04-23 17:18 53.64001 10.00800 230 ft 146 kts 234°
2026-04-23 17:18 53.63364 9.99501 50 ft 137 kts 235°
2026-04-23 17:19 53.62825 9.98390 43 ft 101 kts 229°
2026-04-23 17:19 53.62558 9.97852 41 ft 25 kts 230°
2026-04-23 17:19 53.62431 9.97853 44 ft 19 kts 124°
2026-04-23 17:19 53.62436 9.97956 46 ft 2 kts 79°
2026-04-23 17:20 53.62440 9.97989 47 ft 6 kts 79°
2026-04-23 17:20 53.62522 9.98209 47 ft 15 kts 50°
2026-04-23 17:21 53.62645 9.98456 47 ft 13 kts 51°
2026-04-23 17:21 53.62710 9.98592 47 ft 17 kts 51°
2026-04-23 17:21 53.62888 9.98951 47 ft 19 kts 50°
2026-04-23 17:22 53.62970 9.99118 47 ft 18 kts 50°
2026-04-23 17:22 53.63086 9.99367 47 ft 3 kts 55°
2026-04-23 17:23 53.63101 9.99403 44 ft 8 kts 56°
2026-04-23 17:23 53.63152 9.99523 46 ft 13 kts 52°
2026-04-23 17:23 53.63202 9.99781 47 ft 21 kts 143°
2026-04-23 17:24 53.63070 9.99896 48 ft 15 kts 152°
2026-04-23 17:24 53.63007 9.99951 48 ft 4 kts 152°
2026-04-23 17:24 53.62938 10.00011 48 ft 13 kts 153°
2026-04-23 17:25 53.62950 10.00145 48 ft 15 kts 26°
2026-04-23 17:25 53.63074 10.00260 46 ft 18 kts
2026-04-23 17:26 53.63205 10.00339 48 ft 9 kts 88°
2026-04-23 17:26 53.63206 10.00374 48 ft 0 kts 86°